Location: Brachstadt
(48.6975°N, 10.6755°E)
Time: 05:13:07
(UTC+00:00)

NOSS 2-2 (D) - Pass Details

Date: 18 September 2020
Orbit: 469 x 1739 km, 63.3° (Epoch: 23 October)

Event Time Altitude Azimuth Distance (km) Brightness Sun altitude
Rises 19:20:51 0° 229° (SW) 2,501 7.0 -19.6°
Reaches altitude 10° 19:22:53 10° 233° (SW) 1,633 6.0 -19.9°
Maximum altitude 19:26:22 63° 315° (NW) 565 3.5 -20.4°
Drops below altitude 10° 19:30:23 10° 37° (NE) 1,879 5.9 -21.0°
Enters shadow 19:32:21 - 41° (NE) 2,704 6.7 -21.2°
